EW4363 Weather Reports


Display with metric or nautical units.
time (UTC)temp
F
wind
direction
speed
MPH
gust
MPH
rain 1hr
in
rain 24hr
in
rain mn
in
humidity
%
barometer
mb
20260506165305 68 314 1.0 7.0 0.00 0.02 0.01 51 1009.2
20260506164804 68 321 3.0 7.0 0.00 0.02 0.01 52 1009.2
20260506164305 68 319 3.0 7.0 0.00 0.03 0.01 52 1009.2
20260506163305 69 317 3.0 9.0 0.00 0.04 0.01 51 1009.2
20260506162804 70 318 4.0 8.0 0.00 0.05 0.01 49 1009.1
20260506162307 70 324 2.0 7.0 0.00 0.05 0.01 49 1009.1
20260506161804 70 315 3.0 7.0 0.00 0.06 0.01 49 1009.0
20260506161304 70 321 5.0 9.0 0.00 0.06 0.01 48 1009.0
20260506160804 71 318 3.0 6.0 0.00 0.06 0.01 47 1008.9
20260506160305 72 314 2.0 5.0 0.00 0.07 0.01 45 1008.9
20260506155306 73 321 3.0 7.0 0.00 0.09 0.01 44 1008.8
20260506154304 74 319 2.0 5.0 0.00 0.13 0.01 43 1008.8
20260506153804 74 317 2.0 7.0 0.00 0.13 0.01 42 1008.8
20260506153305 76 312 3.0 7.0 0.00 0.13 0.01 41 1008.8
20260506152804 76 338 1.0 5.0 0.00 0.13 0.01 39 1008.8
20260506152306 76 297 1.0 3.0 0.00 0.13 0.01 40 1008.9
20260506151805 76 323 3.0 8.0 0.00 0.13 0.01 39 1008.9
20260506151305 76 292 2.0 6.0 0.00 0.13 0.01 33 1008.9
20260506145805 75 257 1.0 5.0 0.00 0.13 0.01 33 1009.0
20260506145305 75 303 2.0 6.0 0.00 0.13 0.01 33 1009.0
20260506144804 75 266 3.0 10.0 0.00 0.13 0.01 34 1008.9
20260506144305 74 276 0.0 6.0 0.00 0.13 0.01 34 1009.0
20260506143805 74 284 1.0 6.0 0.00 0.13 0.01 33 1009.1
20260506143305 74 300 3.0 7.0 0.00 0.13 0.01 34 1009.2
20260506142804 74 261 3.0 7.0 0.00 0.13 0.01 35 1009.3
20260506142306 74 330 2.0 6.0 0.00 0.13 0.01 34 1009.3
20260506141804 74 309 3.0 8.0 0.00 0.13 0.01 35 1009.3
20260506141305 73 285 1.0 7.0 0.00 0.13 0.01 36 1009.4
20260506140804 72 307 2.0 6.0 0.00 0.13 0.01 37 1009.5
20260506140305 72 254 3.0 8.0 0.00 0.13 0.01 37 1009.5
20260506135805 73 316 3.0 7.0 0.00 0.13 0.01 37 1009.6
20260506135306 73 317 2.0 3.0 0.00 0.13 0.01 36 1009.5
20260506134805 73 289 2.0 10.0 0.00 0.13 0.01 36 1009.6
20260506133805 72 279 0.0 2.0 0.00 0.13 0.01 38 1009.6
20260506132805 72 285 2.0 6.0 0.00 0.13 0.01 37 1009.8
20260506132307 73 280 2.0 6.0 0.00 0.13 0.01 36 1009.8
20260506131304 74 278 1.0 6.0 0.00 0.13 0.01 37 1010.0
20260506130304 74 260 3.0 10.0 0.00 0.13 0.01 34 1010.0
20260506125804 74 302 2.0 7.0 0.00 0.13 0.01 36 1010.0
20260506125305 74 282 1.0 3.0 0.00 0.13 0.01 36 1010.0
20260506124804 74 306 3.0 7.0 0.00 0.13 0.01 36 1010.1
20260506124304 74 325 3.0 7.0 0.00 0.13 0.01 36 1010.0
20260506123304 74 314 3.0 7.0 0.00 0.13 0.01 39 1010.1
20260506122804 74 325 2.0 3.0 0.00 0.13 0.01 38 1010.1
20260506120304 72 261 3.0 5.0 0.00 0.13 0.01 42 1010.3
20260506115804 72 274 1.0 3.0 0.00 0.13 0.01 41 1010.3
20260506115307 72 299 1.0 6.0 0.00 0.13 0.01 39 1010.3
20260506114804 72 318 1.0 3.0 0.00 0.13 0.01 42 1010.3
20260506114304 72 319 2.0 12.0 0.00 0.13 0.01 43 1010.4
20260506113804 71 274 3.0 9.0 0.00 0.13 0.01 40 1010.4
20260506113305 71 270 4.0 8.0 0.00 0.13 0.01 39 1010.4
20260506112804 71 269 4.0 7.0 0.00 0.13 0.01 39 1010.5
20260506112306 71 290 3.0 9.0 0.00 0.13 0.01 39 1010.5
20260506111305 70 259 1.0 8.0 0.00 0.13 0.01 41 1010.6
20260506110804 70 291 1.0 6.0 0.00 0.13 0.01 41 1010.7
20260506110305 70 258 2.0 8.0 0.00 0.13 0.01 41 1010.8
20260506105804 69 310 2.0 8.0 0.00 0.13 0.01 42 1010.7
20260506105305 69 262 3.0 7.0 0.00 0.13 0.01 42 1010.8
20260506104804 69 265 3.0 10.0 0.00 0.13 0.01 43 1010.9
20260506104304 70 306 1.0 6.0 0.00 0.13 0.01 42 1010.9
20260506103304 69 252 1.0 10.0 0.00 0.13 0.01 43 1011.0
20260506102804 69 321 2.0 5.0 0.00 0.13 0.01 43 1011.1
20260506101804 69 316 2.0 3.0 0.00 0.13 0.01 46 1011.2
20260506101305 69 321 2.0 5.0 0.00 0.13 0.01 51 1011.2
20260506100804 68 312 1.0 2.0 0.00 0.13 0.01 50 1011.2
20260506095804 66 267 1.0 3.0 0.00 0.13 0.01 52 1011.4
20260506094804 65 276 2.0 3.0 0.00 0.13 0.01 54 1011.6
20260506092804 64 313 0.0 2.0 0.00 0.13 0.01 59 1011.6
20260506091304 63 294 1.0 3.0 0.00 0.13 0.01 59 1011.8
20260506090804 63 285 2.0 3.0 0.00 0.13 0.01 59 1011.8
20260506090304 63 276 0.0 2.0 0.00 0.13 0.01 61 1011.8
20260506085804 62 271 2.0 3.0 0.00 0.13 0.01 62 1011.8
20260506085306 62 272 4.0 7.0 0.00 0.13 0.01 62 1011.8
20260506084805 61 280 2.0 6.0 0.00 0.13 0.01 62 1011.8
20260506084304 61 273 2.0 3.0 0.00 0.13 0.01 64 1011.8
20260506083804 61 281 2.0 5.0 0.00 0.13 0.01 64 1011.7
20260506083304 60 281 1.0 5.0 0.00 0.13 0.01 65 1011.7
20260506082805 60 283 3.0 6.0 0.00 0.13 0.01 66 1011.7
20260506082305 60 277 2.0 8.0 0.00 0.13 0.01 67 1011.7
20260506081805 60 271 4.0 7.0 0.00 0.13 0.01 67 1011.7
20260506081305 59 277 2.0 8.0 0.00 0.13 0.01 69 1011.6
20260506080805 59 264 2.0 8.0 0.00 0.13 0.01 68 1011.6
20260506080305 58 274 2.0 6.0 0.00 0.13 0.01 70 1011.5
20260506073305 56 267 2.0 6.0 0.00 0.13 0.01 77 1011.4
20260506072804 55 270 3.0 5.0 0.00 0.13 0.01 78 1011.4
20260506072306 55 274 3.0 6.0 0.00 0.13 0.01 78 1011.4
20260506071804 55 278 3.0 8.0 0.00 0.13 0.01 79 1011.4
20260506071305 54 277 3.0 9.0 0.00 0.13 0.01 80 1011.4
20260506070305 53 272 1.0 7.0 0.00 0.13 0.01 83 1011.5
20260506062306 51 274 2.0 8.0 0.00 0.13 0.01 87 1011.5
20260506061805 51 271 2.0 6.0 0.00 0.13 0.01 87 1011.5
20260506061305 51 271 2.0 6.0 0.00 0.13 0.01 87 1011.5
20260506060805 51 268 2.0 6.0 0.00 0.13 0.01 87 1011.4
20260506060305 51 271 2.0 3.0 0.00 0.13 0.01 88 1011.4
20260506050804 49 277 2.0 5.0 0.00 0.13 0.01 91 1010.9
20260506050305 49 270 0.0 3.0 0.00 0.13 0.01 91 1010.9
20260506044805 49 284 0.0 1.0 0.00 0.13 0.01 91 1010.7
20260506043804 49 279 1.0 3.0 0.00 0.13 0.01 92 1010.7
20260506043304 49 265 1.0 3.0 0.00 0.13 0.01 92 1010.7
20260506042305 49 271 1.0 3.0 0.00 0.13 0.01 92 1010.7
20260506041804 49 284 0.0 1.0 0.00 0.13 0.01 92 1010.6
20260506041304 49 284 0.0 1.0 0.00 0.13 0.01 92 1010.6
20260506040804 49 284 0.0 0.0 0.00 0.13 0.01 91 1010.5
20260506040305 49 284 0.0 1.0 0.00 0.13 0.01 90 1010.5
20260506035805 50 284 0.0 1.0 0.00 0.13 0.01 91 1010.5
20260506035306 50 273 1.0 3.0 0.00 0.13 0.01 91 1010.5
20260506034305 50 270 2.0 3.0 0.01 0.13 0.01 92 1010.4
20260506033805 50 276 0.0 1.0 0.01 0.13 0.01 91 1010.4
20260506033305 50 276 0.0 1.0 0.01 0.13 0.01 91 1010.4
20260506032805 50 270 0.0 2.0 0.01 0.13 0.01 91 1010.3
20260506032306 50 279 1.0 3.0 0.01 0.13 0.01 91 1010.2
20260506031805 50 263 2.0 3.0 0.01 0.13 0.01 92 1010.3
20260506031305 50 276 1.0 3.0 0.01 0.13 0.01 92 1010.2
20260506030805 50 270 1.0 5.0 0.01 0.13 0.01 93 1010.3
20260506030305 49 284 0.0 2.0 0.01 0.13 0.01 92 1010.3
20260506025306 50 284 0.0 1.0 0.01 0.13 0.01 93 1010.3
20260506024804 50 284 0.0 1.0 0.01 0.13 0.01 94 1010.2
20260506023805 49 328 0.0 0.0 0.00 0.13 0.00 93 1010.1
20260506023305 49 328 0.0 2.0 0.00 0.13 0.00 93 1010.2
20260506022805 49 252 0.0 1.0 0.00 0.13 0.00 93 1010.2
20260506022306 50 249 0.0 1.0 0.00 0.13 0.00 93 1010.2
20260506021305 50 249 0.0 0.0 0.00 0.13 0.00 94 1010.1
20260506020805 50 249 0.0 2.0 0.00 0.13 0.00 94 1010.1
20260506020304 50 286 0.0 1.0 0.00 0.13 0.00 94 1010.1
20260506015804 50 286 0.0 0.0 0.00 0.13 0.00 94 1010.0
20260506015306 50 286 0.0 1.0 0.00 0.13 0.00 94 1009.9
20260506014805 50 268 0.0 0.0 0.00 0.13 0.00 93 1010.0
20260506014305 50 268 0.0 0.0 0.00 0.13 0.00 92 1010.0
20260506013305 50 268 0.0 1.0 0.00 0.13 0.00 92 1009.9
20260506012805 51 268 0.0 1.0 0.00 0.13 0.00 92 1009.9
20260506012308 51 274 0.0 0.0 0.00 0.13 0.00 93 1009.9
20260506011307 51 0 0.0 0.0 0.00 0.13 0.00 92 1009.9
20260506010805 51 274 0.0 1.0 0.00 0.13 0.00 92 1010.0
20260506010304 51 274 0.0 1.0 0.00 0.13 0.00 92 1010.0
20260506005306 52 274 0.0 0.0 0.00 0.13 0.00 91 1010.1
20260506004805 52 274 0.0 0.0 0.00 0.13 0.00 91 1010.1
20260506004304 52 274 0.0 2.0 0.00 0.13 0.00 91 1010.1
20260506003805 52 274 1.0 3.0 0.00 0.13 0.00 91 1010.2
20260506003305 52 262 1.0 2.0 0.00 0.13 0.00 91 1010.2
20260506002805 53 275 2.0 3.0 0.00 0.13 0.00 91 1010.2
20260506001304 53 338 0.0 5.0 0.00 0.13 0.00 91 1010.2
20260506000804 53 275 2.0 6.0 0.00 0.13 0.00 91 1010.3
20260506000305 53 314 1.0 3.0 0.00 0.13 0.00 92 1010.3
20260505235805 52 289 0.0 3.0 0.00 0.13 0.00 92 1010.3
20260505235305 53 266 0.0 1.0 0.00 0.13 0.00 90 1010.3
20260505234305 53 269 0.0 2.0 0.00 0.13 0.00 91 1010.3
20260505233805 53 275 1.0 3.0 0.00 0.13 0.00 91 1010.3
20260505233304 53 267 0.0 2.0 0.00 0.13 0.00 91 1010.2
20260505232805 53 289 1.0 2.0 0.00 0.13 0.00 92 1010.2
20260505232305 53 270 0.0 2.0 0.00 0.13 0.00 92 1010.3
20260505231805 53 270 0.0 2.0 0.00 0.13 0.00 92 1010.2
20260505231304 53 273 0.0 2.0 0.00 0.13 0.00 93 1010.2
20260505230804 53 274 1.0 3.0 0.00 0.13 0.00 93 1010.1
20260505230305 53 273 0.0 1.0 0.00 0.13 0.00 93 1010.2
20260505225306 53 283 0.0 1.0 0.00 0.13 0.00 92 1010.1
20260505224805 53 283 0.0 1.0 0.00 0.13 0.00 92 1010.1
20260505224304 53 283 0.0 1.0 0.00 0.13 0.00 92 1010.0
20260505223804 53 283 0.0 1.0 0.00 0.13 0.00 93 1010.2
20260505223304 53 283 0.0 1.0 0.00 0.13 0.00 93 1010.4
20260505222805 54 324 0.0 1.0 0.00 0.13 0.00 93 1010.4
20260505222306 54 324 0.0 1.0 0.00 0.13 0.00 93 1010.5
20260505221805 54 324 0.0 0.0 0.00 0.13 0.00 93 1010.7
20260505221304 54 324 0.0 0.0 0.00 0.13 0.00 92 1010.6
20260505215805 54 324 0.0 2.0 0.00 0.13 0.13 91 1010.8
20260505215305 54 322 0.0 0.0 0.00 0.13 0.13 91 1010.8
20260505214305 54 322 0.0 0.0 0.00 0.13 0.13 92 1010.9
20260505213805 54 322 0.0 0.0 0.00 0.13 0.13 92 1010.8
20260505213305 54 322 0.0 0.0 0.00 0.13 0.13 92 1010.7
20260505212805 54 322 0.0 0.0 0.00 0.13 0.13 91 1010.8
20260505212306 55 322 0.0 0.0 0.00 0.13 0.13 91 1010.7
20260505211805 55 322 0.0 0.0 0.00 0.13 0.13 91 1010.6
20260505210805 55 324 0.0 1.0 0.00 0.13 0.13 91 1010.6
20260505210305 55 324 0.0 0.0 0.00 0.13 0.13 90 1010.7
20260505205805 55 324 0.0 0.0 0.00 0.13 0.13 90 1010.6
20260505205306 55 324 0.0 0.0 0.00 0.13 0.13 91 1010.7
20260505204805 55 324 0.0 0.0 0.00 0.13 0.13 90 1010.7
20260505203805 55 324 0.0 1.0 0.00 0.13 0.13 90 1010.4
20260505203305 55 324 0.0 0.0 0.00 0.15 0.13 91 1010.3
20260505202805 55 324 0.0 0.0 0.00 0.17 0.13 91 1010.2
20260505202306 55 324 0.0 1.0 0.00 0.18 0.13 91 1010.2
20260505201805 55 324 0.0 1.0 0.00 0.20 0.13 91 1010.2
20260505201305 55 326 0.0 1.0 0.00 0.20 0.13 91 1010.2
20260505200805 55 326 0.0 0.0 0.00 0.20 0.13 91 1010.1
20260505200305 55 326 0.0 0.0 0.00 0.20 0.13 90 1010.0
20260505195805 55 326 0.0 1.0 0.00 0.20 0.13 90 1010.0
20260505195305 56 326 0.0 1.0 0.00 0.20 0.13 90 1009.8
20260505194804 56 326 0.0 1.0 0.00 0.20 0.13 89 1009.7
20260505193805 56 336 0.0 1.0 0.00 0.20 0.13 88 1009.6
20260505193305 56 281 0.0 0.0 0.00 0.20 0.13 88 1009.5
20260505192804 56 281 0.0 1.0 0.00 0.20 0.13 87 1009.4
20260505192306 56 281 0.0 2.0 0.00 0.20 0.13 87 1009.2
20260505191804 56 267 0.0 1.0 0.00 0.20 0.13 88 1009.2
20260505190805 57 265 0.0 1.0 0.00 0.20 0.13 87 1009.2
20260505190305 57 264 1.0 2.0 0.00 0.20 0.13 87 1009.1
20260505185805 57 273 1.0 3.0 0.00 0.20 0.13 88 1009.1
20260505185305 57 267 1.0 3.0 0.00 0.20 0.13 90 1009.2
20260505184805 57 262 1.0 3.0 0.00 0.20 0.13 90 1009.2
20260505184304 57 275 1.0 2.0 0.00 0.20 0.13 89 1009.3
20260505183806 57 280 0.0 2.0 0.00 0.20 0.13 89 1009.2
20260505183305 57 285 0.0 1.0 0.00 0.20 0.13 90 1009.2
20260505182804 57 285 0.0 2.0 0.00 0.20 0.13 90 1009.3
20260505182306 57 327 0.0 1.0 0.00 0.20 0.13 90 1009.2
20260505181805 57 327 0.0 0.0 0.00 0.20 0.13 89 1009.2
20260505181304 57 327 0.0 1.0 0.00 0.20 0.13 89 1009.3
20260505180804 57 323 0.0 2.0 0.00 0.20 0.13 88 1009.3
20260505180305 57 323 0.0 1.0 0.00 0.20 0.13 89 1009.3
20260505175305 57 323 0.0 1.0 0.01 0.20 0.13 88 1009.2
20260505174805 57 326 0.0 1.0 0.01 0.20 0.13 88 1009.2
20260505174305 57 326 0.0 0.0 0.02 0.20 0.13 88 1009.3
20260505173805 57 326 0.0 0.0 0.02 0.20 0.13 87 1009.4
20260505173305 57 326 0.0 0.0 0.03 0.20 0.13 87 1009.4
20260505172306 57 326 0.0 2.0 0.04 0.20 0.13 87 1009.4
20260505171805 57 326 0.0 2.0 0.05 0.20 0.13 88 1009.3